Time,TemperatureF,DewpointF,PressureIn,WindDirection,WindDirectionDegrees,WindSpeedMPH,WindSpeedGustMPH,Humidity,HourlyPrecipIn,Conditions,Clouds,dailyrainin,SoftwareType,DateUTC
2013-11-14 00:01:00,35.2,22.7,30.37,SSE,158,2.4,2.4,60,0.00,,,0.00,VWS V13.00,2013-11-14 05:01:00,
2013-11-14 00:02:00,35.2,22.7,30.37,ESE,112,2.4,2.4,60,0.00,,,0.00,VWS V13.00,2013-11-14 05:02:00,
2013-11-14 00:03:00,35.2,23.1,30.37,South,180,6.7,6.7,61,0.00,,,0.00,VWS V13.00,2013-11-14 05:03:00,
2013-11-14 00:08:00,35.2,23.1,30.36,SSE,158,3.1,6.7,61,0.00,,,0.00,VWS V13.00,2013-11-14 05:08:00,
2013-11-14 00:13:00,35.4,23.3,30.36,SSE,158,0.0,6.7,61,0.00,,,0.00,VWS V13.00,2013-11-14 05:13:00,
2013-11-14 00:18:00,35.4,23.3,30.36,South,180,4.0,8.2,61,0.00,,,0.00,VWS V13.00,2013-11-14 05:18:00,
2013-11-14 00:23:00,35.7,23.6,30.36,SSW,202,7.1,7.1,61,0.00,,,0.00,VWS V13.00,2013-11-14 05:23:00,
2013-11-14 00:28:00,35.7,23.6,30.36,SE,135,2.4,7.1,61,0.00,,,0.00,VWS V13.00,2013-11-14 05:28:00,
2013-11-14 00:33:00,35.9,23.4,30.35,WNW,292,0.0,7.8,60,0.00,,,0.00,VWS V13.00,2013-11-14 05:33:00,
2013-11-14 00:38:00,35.9,23.4,30.35,SSE,158,3.8,7.8,60,0.00,,,0.00,VWS V13.00,2013-11-14 05:38:00,
2013-11-14 00:43:00,36.1,24.0,30.36,SSE,158,6.7,6.7,61,0.00,,,0.00,VWS V13.00,2013-11-14 05:43:00,
2013-11-14 00:48:00,36.1,23.6,30.35,SSW,202,1.3,6.7,60,0.00,,,0.00,VWS V13.00,2013-11-14 05:48:00,
2013-11-14 00:53:00,36.1,23.6,30.35,SW,225,2.6,11.1,60,0.00,,,0.00,VWS V13.00,2013-11-14 05:53:00,
2013-11-14 00:58:00,35.9,23.4,30.35,SSE,158,4.4,11.1,60,0.00,,,0.00,VWS V13.00,2013-11-14 05:58:00,
2013-11-14 01:03:00,35.7,23.2,30.35,WNW,292,4.9,6.9,60,0.00,,,0.00,VWS V13.00,2013-11-14 06:03:00,
2013-11-14 01:08:00,35.4,22.9,30.35,South,180,0.0,6.9,60,0.00,,,0.00,VWS V13.00,2013-11-14 06:08:00,
2013-11-14 01:13:00,35.4,22.9,30.35,West,270,5.8,6.9,60,0.00,,,0.00,VWS V13.00,2013-11-14 06:13:00,
2013-11-14 01:18:00,35.2,22.7,30.35,West,270,0.0,6.9,60,0.00,,,0.00,VWS V13.00,2013-11-14 06:18:00,
2013-11-14 01:23:00,34.8,22.7,30.34,WSW,248,9.6,9.6,61,0.00,,,0.00,VWS V13.00,2013-11-14 06:23:00,
2013-11-14 01:28:00,34.8,22.7,30.35,SW,225,6.9,9.6,61,0.00,,,0.00,VWS V13.00,2013-11-14 06:28:00,
2013-11-14 01:33:00,34.7,23.4,30.35,South,180,3.5,9.6,63,0.00,,,0.00,VWS V13.00,2013-11-14 06:33:00,
2013-11-14 01:38:00,34.7,23.8,30.35,WSW,248,2.4,9.6,64,0.00,,,0.00,VWS V13.00,2013-11-14 06:38:00,
2013-11-14 01:43:00,34.7,23.4,30.34,SE,135,2.0,2.0,63,0.00,,,0.00,VWS V13.00,2013-11-14 06:43:00,
2013-11-14 01:48:00,34.8,23.5,30.34,South,180,0.8,4.2,63,0.00,,,0.00,VWS V13.00,2013-11-14 06:48:00,
2013-11-14 01:53:00,34.8,23.5,30.34,West,270,4.2,4.2,63,0.00,,,0.00,VWS V13.00,2013-11-14 06:53:00,
2013-11-14 01:58:00,34.8,23.5,30.34,SW,225,2.4,4.2,63,0.00,,,0.00,VWS V13.00,2013-11-14 06:58:00,
2013-11-14 02:03:00,34.8,23.9,30.33,South,180,2.4,5.1,64,0.00,,,0.00,VWS V13.00,2013-11-14 07:03:00,
2013-11-14 02:08:00,34.8,23.9,30.34,SSE,158,5.8,5.8,64,0.00,,,0.00,VWS V13.00,2013-11-14 07:08:00,
2013-11-14 02:13:00,35.2,24.6,30.34,SSW,202,11.4,11.4,65,0.00,,,0.00,VWS V13.00,2013-11-14 07:13:00,
2013-11-14 02:18:00,35.4,24.8,30.34,South,180,8.7,11.4,65,0.00,,,0.00,VWS V13.00,2013-11-14 07:18:00,
2013-11-14 02:23:00,35.7,24.7,30.34,South,180,8.5,8.5,64,0.00,,,0.00,VWS V13.00,2013-11-14 07:23:00,
2013-11-14 02:28:00,35.7,24.7,30.33,SE,135,3.1,8.5,64,0.00,,,0.00,VWS V13.00,2013-11-14 07:28:00,
2013-11-14 02:33:00,35.9,24.5,30.34,SSE,158,5.3,8.5,63,0.00,,,0.00,VWS V13.00,2013-11-14 07:33:00,
2013-11-14 02:38:00,35.9,24.9,30.33,SSE,158,8.0,8.5,64,0.00,,,0.00,VWS V13.00,2013-11-14 07:38:00,
2013-11-14 02:43:00,35.9,24.5,30.33,South,180,2.2,4.9,63,0.00,,,0.00,VWS V13.00,2013-11-14 07:43:00,
2013-11-14 02:48:00,35.9,24.5,30.33,South,180,8.0,8.0,63,0.00,,,0.00,VWS V13.00,2013-11-14 07:48:00,
2013-11-14 02:53:00,35.9,24.5,30.34,South,180,4.6,8.0,63,0.00,,,0.00,VWS V13.00,2013-11-14 07:53:00,
2013-11-14 02:58:00,36.1,24.7,30.34,SSE,158,7.6,8.0,63,0.00,,,0.00,VWS V13.00,2013-11-14 07:58:00,
2013-11-14 03:03:00,36.1,24.7,30.33,SSE,158,2.2,10.0,63,0.00,,,0.00,VWS V13.00,2013-11-14 08:03:00,
2013-11-14 03:08:00,36.1,24.7,30.34,SSE,158,5.3,10.0,63,0.00,,,0.00,VWS V13.00,2013-11-14 08:08:00,
2013-11-14 03:13:00,36.1,24.7,30.34,SW,225,3.5,10.0,63,0.00,,,0.00,VWS V13.00,2013-11-14 08:13:00,
2013-11-14 03:18:00,36.1,24.7,30.33,South,180,5.1,10.0,63,0.00,,,0.00,VWS V13.00,2013-11-14 08:18:00,
2013-11-14 03:23:00,36.1,24.7,30.33,South,180,4.0,4.0,63,0.00,,,0.00,VWS V13.00,2013-11-14 08:23:00,
2013-11-14 03:28:00,36.1,25.1,30.33,South,180,1.1,6.7,64,0.00,,,0.00,VWS V13.00,2013-11-14 08:28:00,
2013-11-14 03:33:00,36.1,25.1,30.33,South,180,9.8,9.8,64,0.00,,,0.00,VWS V13.00,2013-11-14 08:33:00,
2013-11-14 03:38:00,35.9,24.9,30.33,SSW,202,9.1,9.8,64,0.00,,,0.00,VWS V13.00,2013-11-14 08:38:00,
2013-11-14 03:44:00,35.9,24.9,30.33,SSE,158,7.1,7.1,64,0.00,,,0.00,VWS V13.00,2013-11-14 08:44:00,
2013-11-14 03:49:00,35.9,24.9,30.33,SE,135,2.0,7.1,64,0.00,,,0.00,VWS V13.00,2013-11-14 08:49:00,
2013-11-14 03:54:00,35.9,24.9,30.33,SSW,202,10.2,10.2,64,0.00,,,0.00,VWS V13.00,2013-11-14 08:54:00,
2013-11-14 03:59:00,35.9,24.9,30.33,SSE,158,6.4,10.2,64,0.00,,,0.00,VWS V13.00,2013-11-14 08:59:00,
2013-11-14 04:04:00,35.7,25.1,30.33,SSE,158,5.8,5.8,65,0.00,,,0.00,VWS V13.00,2013-11-14 09:04:00,
2013-11-14 04:09:00,35.7,25.5,30.33,NNW,338,3.3,6.4,66,0.00,,,0.00,VWS V13.00,2013-11-14 09:09:00,
2013-11-14 04:14:00,35.7,25.5,30.32,SSE,158,13.4,13.4,66,0.00,,,0.00,VWS V13.00,2013-11-14 09:14:00,
2013-11-14 04:19:00,35.7,25.8,30.33,SW,225,8.0,13.4,67,0.00,,,0.00,VWS V13.00,2013-11-14 09:19:00,
2013-11-14 04:24:00,35.7,25.8,30.33,SSE,158,2.0,2.0,67,0.00,,,0.00,VWS V13.00,2013-11-14 09:24:00,
2013-11-14 04:29:00,35.7,25.8,30.33,SSW,202,4.0,4.0,67,0.00,,,0.00,VWS V13.00,2013-11-14 09:29:00,
2013-11-14 04:34:00,35.7,25.8,30.33,WNW,292,2.2,9.6,67,0.00,,,0.00,VWS V13.00,2013-11-14 09:34:00,
2013-11-14 04:39:00,35.4,25.5,30.33,SSE,158,5.3,9.6,67,0.00,,,0.00,VWS V13.00,2013-11-14 09:39:00,
2013-11-14 04:44:00,35.4,25.5,30.33,WNW,292,2.4,6.2,67,0.00,,,0.00,VWS V13.00,2013-11-14 09:44:00,
2013-11-14 04:49:00,35.2,25.4,30.33,SW,225,5.8,6.2,67,0.00,,,0.00,VWS V13.00,2013-11-14 09:49:00,
2013-11-14 04:54:00,35.0,25.2,30.33,SSE,158,2.9,6.2,67,0.00,,,0.00,VWS V13.00,2013-11-14 09:54:00,
2013-11-14 04:59:00,34.8,25.0,30.33,SE,135,2.4,8.2,67,0.00,,,0.00,VWS V13.00,2013-11-14 09:59:00,
2013-11-14 05:04:00,34.8,25.0,30.33,SW,225,9.3,9.3,67,0.00,,,0.00,VWS V13.00,2013-11-14 10:04:00,
2013-11-14 05:09:00,34.8,25.0,30.33,SSE,158,1.3,9.3,67,0.00,,,0.00,VWS V13.00,2013-11-14 10:09:00,
2013-11-14 05:14:00,34.8,25.0,30.33,WNW,292,4.6,9.3,67,0.00,,,0.00,VWS V13.00,2013-11-14 10:14:00,
2013-11-14 05:19:00,34.8,25.0,30.33,SE,135,2.9,12.9,67,0.00,,,0.00,VWS V13.00,2013-11-14 10:19:00,
2013-11-14 05:24:00,34.8,24.6,30.33,SSW,202,8.0,13.1,66,0.00,,,0.00,VWS V13.00,2013-11-14 10:24:00,
2013-11-14 05:29:00,34.8,24.6,30.33,WSW,248,2.2,13.1,66,0.00,,,0.00,VWS V13.00,2013-11-14 10:29:00,
2013-11-14 05:34:00,34.8,24.6,30.33,SW,225,8.2,13.1,66,0.00,,,0.00,VWS V13.00,2013-11-14 10:34:00,
2013-11-14 05:39:00,34.8,24.6,30.33,WSW,248,4.6,13.1,66,0.00,,,0.00,VWS V13.00,2013-11-14 10:39:00,
2013-11-14 05:44:00,34.8,24.2,30.33,WSW,248,1.5,10.7,65,0.00,,,0.00,VWS V13.00,2013-11-14 10:44:00,
2013-11-14 05:50:00,34.8,24.2,30.33,WSW,248,4.0,10.7,65,0.00,,,0.00,VWS V13.00,2013-11-14 10:50:00,
2013-11-14 05:55:00,34.8,24.2,30.33,West,270,5.3,10.7,65,0.00,,,0.00,VWS V13.00,2013-11-14 10:55:00,
2013-11-14 06:00:00,34.7,24.1,30.33,South,180,2.9,10.7,65,0.00,,,0.00,VWS V13.00,2013-11-14 11:00:00,
2013-11-14 06:05:00,34.7,24.1,30.33,SSE,158,3.5,3.5,65,0.00,,,0.00,VWS V13.00,2013-11-14 11:05:00,
2013-11-14 06:10:00,34.7,24.1,30.33,SSE,158,2.9,5.8,65,0.00,,,0.00,VWS V13.00,2013-11-14 11:10:00,
2013-11-14 06:15:00,34.7,23.8,30.33,NE,45,0.0,5.8,64,0.00,,,0.00,VWS V13.00,2013-11-14 11:15:00,
2013-11-14 06:20:00,34.7,23.8,30.34,SSW,202,10.5,10.5,64,0.00,,,0.00,VWS V13.00,2013-11-14 11:20:00,
2013-11-14 06:25:00,34.7,23.8,30.34,WSW,248,9.3,10.9,64,0.00,,,0.00,VWS V13.00,2013-11-14 11:25:00,
2013-11-14 06:30:00,34.7,23.8,30.34,ENE,68,2.2,10.9,64,0.00,,,0.00,VWS V13.00,2013-11-14 11:30:00,
2013-11-14 06:35:00,34.8,23.5,30.34,West,270,5.3,10.9,63,0.00,,,0.00,VWS V13.00,2013-11-14 11:35:00,
2013-11-14 06:40:00,34.8,23.5,30.34,South,180,1.5,10.9,63,0.00,,,0.00,VWS V13.00,2013-11-14 11:40:00,
2013-11-14 06:45:00,34.8,23.9,30.34,SSE,158,3.1,5.5,64,0.00,,,0.00,VWS V13.00,2013-11-14 11:45:00,
2013-11-14 06:50:00,34.8,23.9,30.34,SSE,158,4.9,5.5,64,0.00,,,0.00,VWS V13.00,2013-11-14 11:50:00,
2013-11-14 06:55:00,35.4,24.1,30.35,WSW,248,2.0,12.3,63,0.00,,,0.00,VWS V13.00,2013-11-14 11:55:00,
2013-11-14 07:00:00,35.4,24.1,30.34,SSE,158,6.2,12.3,63,0.00,,,0.00,VWS V13.00,2013-11-14 12:00:00,
2013-11-14 07:05:00,35.7,24.0,30.35,SE,135,3.1,7.6,62,0.00,,,0.00,VWS V13.00,2013-11-14 12:05:00,
2013-11-14 07:10:00,35.9,24.2,30.35,South,180,9.1,9.1,62,0.00,,,0.00,VWS V13.00,2013-11-14 12:10:00,
2013-11-14 07:15:00,35.9,24.2,30.35,SE,135,7.3,9.1,62,0.00,,,0.00,VWS V13.00,2013-11-14 12:15:00,
2013-11-14 07:20:00,36.3,24.5,30.35,SE,135,2.2,2.2,62,0.00,,,0.00,VWS V13.00,2013-11-14 12:20:00,
2013-11-14 07:25:00,36.3,24.9,30.35,SSE,158,3.8,3.8,63,0.00,,,0.00,VWS V13.00,2013-11-14 12:25:00,
2013-11-14 07:30:00,37.2,25.8,30.35,South,180,3.8,3.8,63,0.00,,,0.00,VWS V13.00,2013-11-14 12:30:00,
2013-11-14 07:35:00,37.4,25.6,30.35,South,180,6.0,6.0,62,0.00,,,0.00,VWS V13.00,2013-11-14 12:35:00,
2013-11-14 07:40:00,37.2,25.4,30.35,South,180,8.2,8.2,62,0.00,,,0.00,VWS V13.00,2013-11-14 12:40:00,
2013-11-14 07:45:00,37.0,25.6,30.35,South,180,2.0,8.2,63,0.00,,,0.00,VWS V13.00,2013-11-14 12:45:00,
2013-11-14 07:50:00,37.2,25.8,30.35,SSE,158,5.3,8.9,63,0.00,,,0.00,VWS V13.00,2013-11-14 12:50:00,
2013-11-14 07:55:00,37.2,25.8,30.35,SE,135,14.0,14.0,63,0.00,,,0.00,VWS V13.00,2013-11-14 12:55:00,
2013-11-14 08:00:00,37.5,26.1,30.36,South,180,9.6,9.6,63,0.00,,,0.00,VWS V13.00,2013-11-14 13:00:00,
2013-11-14 08:05:00,37.9,26.5,30.36,South,180,6.4,9.6,63,0.00,,,0.00,VWS V13.00,2013-11-14 13:05:00,
2013-11-14 08:11:00,38.1,26.6,30.35,SW,225,3.5,9.6,63,0.00,,,0.00,VWS V13.00,2013-11-14 13:11:00,
2013-11-14 08:16:00,38.1,26.6,30.36,South,180,0.8,9.6,63,0.00,,,0.00,VWS V13.00,2013-11-14 13:16:00,
2013-11-14 08:21:00,40.6,29.4,30.35,South,180,4.2,4.2,64,0.00,,,0.00,VWS V13.00,2013-11-14 13:21:00,
2013-11-14 08:26:00,44.7,31.7,30.35,SSE,158,7.8,7.8,60,0.00,,,0.00,VWS V13.00,2013-11-14 13:26:00,
2013-11-14 08:31:00,48.7,32.3,30.35,ESE,112,4.2,10.9,53,0.00,,,0.00,VWS V13.00,2013-11-14 13:31:00,
2013-11-14 08:36:00,51.0,32.0,30.35,South,180,6.7,11.6,48,0.00,,,0.00,VWS V13.00,2013-11-14 13:36:00,
2013-11-14 08:41:00,52.1,32.5,30.35,SW,225,4.6,4.6,47,0.00,,,0.00,VWS V13.00,2013-11-14 13:41:00,
2013-11-14 08:46:00,53.4,32.0,30.35,SE,135,9.8,9.8,44,0.00,,,0.00,VWS V13.00,2013-11-14 13:46:00,
2013-11-14 08:51:00,53.4,31.5,30.35,South,180,10.5,11.8,43,0.00,,,0.00,VWS V13.00,2013-11-14 13:51:00,
2013-11-14 08:56:00,53.7,30.6,30.36,South,180,5.8,11.8,41,0.00,,,0.00,VWS V13.00,2013-11-14 13:56:00,
2013-11-14 09:01:00,53.9,30.1,30.35,SW,225,3.8,3.8,40,0.00,,,0.00,VWS V13.00,2013-11-14 14:01:00,
2013-11-14 09:06:00,54.3,30.5,30.35,South,180,7.6,9.6,40,0.00,,,0.00,VWS V13.00,2013-11-14 14:06:00,
2013-11-14 09:11:00,54.6,30.2,30.36,South,180,18.1,18.1,39,0.00,,,0.00,VWS V13.00,2013-11-14 14:11:00,
2013-11-14 09:16:00,54.1,29.7,30.36,SE,135,9.1,18.1,39,0.00,,,0.00,VWS V13.00,2013-11-14 14:16:00,
2013-11-14 09:21:00,54.5,30.7,30.35,SSE,158,2.6,2.6,40,0.00,,,0.00,VWS V13.00,2013-11-14 14:21:00,
2013-11-14 09:26:00,56.1,30.2,30.35,South,180,9.1,9.1,37,0.00,,,0.00,VWS V13.00,2013-11-14 14:26:00,
2013-11-14 09:31:00,56.3,29.7,30.35,South,180,11.4,14.7,36,0.00,,,0.00,VWS V13.00,2013-11-14 14:31:00,
2013-11-14 09:36:00,56.4,29.1,30.35,South,180,19.9,19.9,35,0.00,,,0.00,VWS V13.00,2013-11-14 14:36:00,
2013-11-14 09:41:00,56.4,29.1,30.35,South,180,4.6,4.6,35,0.00,,,0.00,VWS V13.00,2013-11-14 14:41:00,
2013-11-14 09:46:00,56.8,28.0,30.35,South,180,17.0,17.0,33,0.00,,,0.00,VWS V13.00,2013-11-14 14:46:00,
2013-11-14 09:47:00,56.8,28.0,30.34,South,180,17.0,17.0,33,0.00,,,0.00,VWS V13.00,2013-11-14 14:47:00,
2013-11-14 09:52:00,54.3,25.8,30.34,SSE,158,9.1,17.0,33,0.00,,,0.00,VWS V13.00,2013-11-14 14:52:00,
2013-11-14 09:57:00,50.3,25.0,30.34,South,180,14.3,17.0,37,0.00,,,0.00,VWS V13.00,2013-11-14 14:57:00,
2013-11-14 10:02:00,48.7,25.5,30.34,SSW,202,9.8,9.8,40,0.00,,,0.00,VWS V13.00,2013-11-14 15:02:00,
2013-11-14 10:07:00,48.0,24.9,30.34,WSW,248,5.5,9.8,40,0.00,,,0.00,VWS V13.00,2013-11-14 15:07:00,
2013-11-14 10:12:00,47.4,24.9,30.34,SSW,202,10.0,12.0,41,0.00,,,0.00,VWS V13.00,2013-11-14 15:12:00,
2013-11-14 10:17:00,47.4,24.9,30.34,South,180,6.4,12.0,41,0.00,,,0.00,VWS V13.00,2013-11-14 15:17:00,
2013-11-14 10:22:00,47.4,24.9,30.34,South,180,5.5,5.5,41,0.00,,,0.00,VWS V13.00,2013-11-14 15:22:00,
2013-11-14 10:27:00,47.8,25.3,30.33,South,180,6.2,10.5,41,0.00,,,0.00,VWS V13.00,2013-11-14 15:27:00,
2013-11-14 10:32:00,48.0,24.9,30.33,SW,225,3.5,12.3,40,0.00,,,0.00,VWS V13.00,2013-11-14 15:32:00,
2013-11-14 10:37:00,48.2,25.6,30.33,South,180,5.1,12.3,41,0.00,,,0.00,VWS V13.00,2013-11-14 15:37:00,
2013-11-14 10:42:00,48.3,25.1,30.33,NNW,338,5.8,5.8,40,0.00,,,0.00,VWS V13.00,2013-11-14 15:42:00,
2013-11-14 10:47:00,48.7,24.9,30.32,WSW,248,9.3,9.3,39,0.00,,,0.00,VWS V13.00,2013-11-14 15:47:00,
2013-11-14 10:52:00,48.9,23.8,30.32,South,180,9.1,9.3,37,0.00,,,0.00,VWS V13.00,2013-11-14 15:52:00,
2013-11-14 10:57:00,49.1,23.3,30.32,SSE,158,6.7,9.8,36,0.00,,,0.00,VWS V13.00,2013-11-14 15:57:00,
2013-11-14 11:02:00,49.2,22.7,30.32,South,180,11.8,11.8,35,0.00,,,0.00,VWS V13.00,2013-11-14 16:02:00,
2013-11-14 11:07:00,49.8,21.9,30.32,SSW,202,9.1,11.8,33,0.00,,,0.00,VWS V13.00,2013-11-14 16:07:00,
2013-11-14 11:12:00,50.3,20.8,30.31,SW,225,11.1,14.3,31,0.00,,,0.00,VWS V13.00,2013-11-14 16:12:00,
2013-11-14 11:17:00,53.7,21.4,30.31,South,180,9.6,18.7,28,0.00,,,0.00,VWS V13.00,2013-11-14 16:17:00,
2013-11-14 11:22:00,55.5,23.0,30.31,SSW,202,11.1,11.1,28,0.00,,,0.00,VWS V13.00,2013-11-14 16:22:00,
2013-11-14 11:27:00,57.7,25.7,30.31,SSW,202,6.2,11.1,29,0.00,,,0.00,VWS V13.00,2013-11-14 16:27:00,
2013-11-14 11:33:00,59.7,26.6,30.30,South,180,9.1,11.1,28,0.00,,,0.00,VWS V13.00,2013-11-14 16:33:00,
2013-11-14 11:38:00,60.6,27.3,30.30,SSE,158,11.1,11.1,28,0.00,,,0.00,VWS V13.00,2013-11-14 16:38:00,
2013-11-14 11:43:00,60.4,27.2,30.30,SSE,158,7.8,13.6,28,0.00,,,0.00,VWS V13.00,2013-11-14 16:43:00,
2013-11-14 11:48:00,59.7,26.6,30.29,SSE,158,7.3,13.6,28,0.00,,,0.00,VWS V13.00,2013-11-14 16:48:00,
2013-11-14 11:53:00,59.3,26.2,30.29,South,180,9.3,15.8,28,0.00,,,0.00,VWS V13.00,2013-11-14 16:53:00,
2013-11-14 11:58:00,59.5,26.4,30.28,SSE,158,6.7,15.8,28,0.00,,,0.00,VWS V13.00,2013-11-14 16:58:00,
2013-11-14 12:03:00,59.5,26.4,30.29,SE,135,7.6,7.6,28,0.00,,,0.00,VWS V13.00,2013-11-14 17:03:00,
2013-11-14 12:08:00,59.9,26.7,30.28,SSE,158,7.6,8.0,28,0.00,,,0.00,VWS V13.00,2013-11-14 17:08:00,
2013-11-14 12:13:00,60.9,26.7,30.28,SSE,158,8.2,10.9,27,0.00,,,0.00,VWS V13.00,2013-11-14 17:13:00,
2013-11-14 12:18:00,60.6,24.6,30.28,South,180,5.1,10.9,25,0.00,,,0.00,VWS V13.00,2013-11-14 17:18:00,
2013-11-14 12:23:00,61.3,24.2,30.27,West,270,11.8,13.4,24,0.00,,,0.00,VWS V13.00,2013-11-14 17:23:00,
2013-11-14 12:28:00,62.7,25.4,30.27,SSW,202,11.6,13.4,24,0.00,,,0.00,VWS V13.00,2013-11-14 17:28:00,
2013-11-14 12:33:00,64.2,24.6,30.27,WSW,248,9.6,13.4,22,0.00,,,0.00,VWS V13.00,2013-11-14 17:33:00,
2013-11-14 12:38:00,64.2,21.1,30.27,SSE,158,4.4,13.4,19,0.00,,,0.00,VWS V13.00,2013-11-14 17:38:00,
2013-11-14 12:43:00,64.2,22.3,30.27,SE,135,8.2,9.6,20,0.00,,,0.00,VWS V13.00,2013-11-14 17:43:00,
2013-11-14 12:48:00,64.5,22.6,30.26,SW,225,4.9,9.6,20,0.00,,,0.00,VWS V13.00,2013-11-14 17:48:00,
2013-11-14 12:53:00,64.2,22.3,30.26,WNW,292,5.3,9.6,20,0.00,,,0.00,VWS V13.00,2013-11-14 17:53:00,
2013-11-14 12:58:00,64.2,22.3,30.26,SE,135,4.6,9.6,20,0.00,,,0.00,VWS V13.00,2013-11-14 17:58:00,
2013-11-14 13:03:00,64.7,21.5,30.26,South,180,4.0,9.6,19,0.00,,,0.00,VWS V13.00,2013-11-14 18:03:00,
2013-11-14 13:08:00,64.5,20.1,30.26,SSE,158,8.9,9.6,18,0.00,,,0.00,VWS V13.00,2013-11-14 18:08:00,
2013-11-14 13:13:00,62.4,19.6,30.25,South,180,8.2,9.6,19,0.00,,,0.00,VWS V13.00,2013-11-14 18:13:00,
2013-11-14 13:18:00,60.9,19.6,30.25,South,180,6.9,12.7,20,0.00,,,0.00,VWS V13.00,2013-11-14 18:18:00,
2013-11-14 13:23:00,60.4,21.4,30.25,SSE,158,4.9,5.1,22,0.00,,,0.00,VWS V13.00,2013-11-14 18:23:00,
2013-11-14 13:28:00,59.5,22.7,30.25,SSE,158,14.5,14.5,24,0.00,,,0.00,VWS V13.00,2013-11-14 18:28:00,
2013-11-14 13:33:00,58.8,22.1,30.25,SSE,158,13.4,15.4,24,0.00,,,0.00,VWS V13.00,2013-11-14 18:33:00,
2013-11-14 13:38:00,58.2,21.6,30.25,South,180,8.0,15.4,24,0.00,,,0.00,VWS V13.00,2013-11-14 18:38:00,
2013-11-14 13:43:00,58.8,22.1,30.25,SSW,202,9.6,9.6,24,0.00,,,0.00,VWS V13.00,2013-11-14 18:43:00,
2013-11-14 13:48:00,58.1,19.5,30.25,SSE,158,11.1,11.1,22,0.00,,,0.02,VWS V13.00,2013-11-14 18:48:00,
2013-11-14 13:53:00,57.7,21.2,30.25,South,180,9.1,14.5,24,0.00,,,0.00,VWS V13.00,2013-11-14 18:53:00,
2013-11-14 13:58:00,57.9,23.2,30.24,SSE,158,6.9,14.5,26,0.00,,,0.00,VWS V13.00,2013-11-14 18:58:00,
2013-11-14 14:04:00,57.7,24.0,30.25,South,180,10.0,10.0,27,0.00,,,0.00,VWS V13.00,2013-11-14 19:04:00,
2013-11-14 14:09:00,57.3,25.3,30.25,SSE,158,10.5,10.5,29,0.00,,,0.00,VWS V13.00,2013-11-14 19:09:00,
2013-11-14 14:14:00,56.8,25.7,30.25,SSE,158,8.7,10.7,30,0.00,,,0.00,VWS V13.00,2013-11-14 19:14:00,
2013-11-14 14:19:00,56.4,26.9,30.25,SSW,202,12.5,12.5,32,0.00,,,0.00,VWS V13.00,2013-11-14 19:19:00,
2013-11-14 14:24:00,55.9,26.5,30.24,South,180,9.3,14.0,32,0.00,,,0.00,VWS V13.00,2013-11-14 19:24:00,
2013-11-14 14:29:00,55.7,25.5,30.24,SSE,158,14.0,14.0,31,0.00,,,0.00,VWS V13.00,2013-11-14 19:29:00,
2013-11-14 14:34:00,55.5,25.4,30.24,ESE,112,14.7,14.7,31,0.00,,,0.00,VWS V13.00,2013-11-14 19:34:00,
2013-11-14 14:39:00,55.4,24.5,30.24,SSW,202,9.3,14.7,30,0.00,,,0.00,VWS V13.00,2013-11-14 19:39:00,
2013-11-14 14:44:00,55.2,24.3,30.24,SSW,202,10.7,16.3,30,0.00,,,0.00,VWS V13.00,2013-11-14 19:44:00,
2013-11-14 14:49:00,55.4,24.5,30.24,SSW,202,8.9,16.3,30,0.00,,,0.00,VWS V13.00,2013-11-14 19:49:00,
2013-11-14 14:54:00,55.5,23.8,30.24,SSW,202,8.5,16.3,29,0.00,,,0.00,VWS V13.00,2013-11-14 19:54:00,
2013-11-14 14:59:00,55.7,24.0,30.24,SSW,202,9.3,16.3,29,0.00,,,0.00,VWS V13.00,2013-11-14 19:59:00,
2013-11-14 15:04:00,55.7,24.0,30.24,South,180,6.9,13.6,29,0.00,,,0.00,VWS V13.00,2013-11-14 20:04:00,
2013-11-14 15:09:00,55.9,24.1,30.24,SSE,158,14.5,14.5,29,0.00,,,0.00,VWS V13.00,2013-11-14 20:09:00,
2013-11-14 15:14:00,56.1,25.1,30.24,South,180,8.9,14.5,30,0.00,,,0.00,VWS V13.00,2013-11-14 20:14:00,
2013-11-14 15:19:00,56.1,24.3,30.24,South,180,10.0,14.5,29,0.00,,,0.00,VWS V13.00,2013-11-14 20:19:00,
2013-11-14 15:24:00,55.9,23.3,30.24,SE,135,6.2,9.8,28,0.00,,,0.00,VWS V13.00,2013-11-14 20:24:00,
2013-11-14 15:29:00,55.7,23.1,30.24,SSE,158,10.7,13.4,28,0.00,,,0.00,VWS V13.00,2013-11-14 20:29:00,
2013-11-14 15:34:00,55.5,23.8,30.24,SE,135,4.6,13.4,29,0.00,,,0.00,VWS V13.00,2013-11-14 20:34:00,
2013-11-14 15:39:00,55.7,24.8,30.24,SSE,158,8.7,13.4,30,0.00,,,0.00,VWS V13.00,2013-11-14 20:39:00,
2013-11-14 15:44:00,55.5,24.6,30.24,South,180,4.6,9.1,30,0.00,,,0.00,VWS V13.00,2013-11-14 20:44:00,
2013-11-14 15:49:00,55.5,23.8,30.25,SSE,158,6.4,9.1,29,0.00,,,0.00,VWS V13.00,2013-11-14 20:49:00,
2013-11-14 15:54:00,55.5,23.8,30.24,South,180,5.3,9.1,29,0.00,,,0.00,VWS V13.00,2013-11-14 20:54:00,
2013-11-14 15:59:00,55.5,23.8,30.24,South,180,6.9,9.1,29,0.00,,,0.00,VWS V13.00,2013-11-14 20:59:00,
2013-11-14 16:04:00,55.2,24.3,30.25,SSE,158,4.0,8.7,30,0.00,,,0.00,VWS V13.00,2013-11-14 21:04:00,
2013-11-14 16:09:00,55.2,24.3,30.24,SSE,158,5.3,8.7,30,0.00,,,0.00,VWS V13.00,2013-11-14 21:09:00,
2013-11-14 16:14:00,55.2,23.5,30.25,SSW,202,8.2,8.7,29,0.00,,,0.00,VWS V13.00,2013-11-14 21:14:00,
2013-11-14 16:19:00,55.0,23.4,30.24,SSE,158,5.1,8.7,29,0.00,,,0.00,VWS V13.00,2013-11-14 21:19:00,
2013-11-14 16:24:00,55.0,23.4,30.24,South,180,8.9,8.9,29,0.00,,,0.00,VWS V13.00,2013-11-14 21:24:00,
2013-11-14 16:29:00,54.6,23.0,30.24,South,180,6.7,10.9,29,0.00,,,0.00,VWS V13.00,2013-11-14 21:29:00,
2013-11-14 16:34:00,54.3,23.5,30.24,SSE,158,9.1,10.9,30,0.00,,,0.00,VWS V13.00,2013-11-14 21:34:00,
2013-11-14 16:39:00,54.3,25.1,30.25,SE,135,8.7,10.9,32,0.00,,,0.00,VWS V13.00,2013-11-14 21:39:00,
2013-11-14 16:44:00,54.1,26.4,30.25,SE,135,10.5,12.3,34,0.00,,,0.00,VWS V13.00,2013-11-14 21:44:00,
2013-11-14 16:49:00,53.9,26.2,30.25,SE,135,2.0,12.3,34,0.00,,,0.00,VWS V13.00,2013-11-14 21:49:00,
2013-11-14 16:54:00,53.7,26.0,30.25,SSE,158,5.8,12.3,34,0.00,,,0.00,VWS V13.00,2013-11-14 21:54:00,
2013-11-14 16:59:00,53.7,26.7,30.25,SSW,202,6.2,12.3,35,0.00,,,0.00,VWS V13.00,2013-11-14 21:59:00,
2013-11-14 17:04:00,53.4,27.8,30.25,SE,135,8.9,8.9,37,0.00,,,0.00,VWS V13.00,2013-11-14 22:04:00,
2013-11-14 17:09:00,53.4,32.6,30.25,SE,135,7.1,8.9,45,0.00,,,0.00,VWS V13.00,2013-11-14 22:09:00,
2013-11-14 17:14:00,53.2,35.6,30.26,SSE,158,11.8,11.8,51,0.00,,,0.00,VWS V13.00,2013-11-14 22:14:00,
2013-11-14 17:19:00,52.8,38.0,30.25,SSE,158,9.1,11.8,57,0.00,,,0.00,VWS V13.00,2013-11-14 22:19:00,
2013-11-14 17:25:00,52.7,38.8,30.25,ESE,112,4.6,9.1,59,0.00,,,0.00,VWS V13.00,2013-11-14 22:25:00,
2013-11-14 17:30:00,52.5,39.9,30.25,SSE,158,8.0,9.1,62,0.00,,,0.00,VWS V13.00,2013-11-14 22:30:00,
2013-11-14 17:35:00,52.5,39.5,30.25,SSE,158,5.3,10.7,61,0.00,,,0.00,VWS V13.00,2013-11-14 22:35:00,
2013-11-14 17:40:00,52.5,39.5,30.25,SE,135,6.2,10.7,61,0.00,,,0.00,VWS V13.00,2013-11-14 22:40:00,
2013-11-14 17:45:00,52.3,37.5,30.25,SSW,202,8.5,8.5,57,0.00,,,0.00,VWS V13.00,2013-11-14 22:45:00,
2013-11-14 17:50:00,52.3,34.7,30.26,SE,135,12.0,12.0,51,0.00,,,0.00,VWS V13.00,2013-11-14 22:50:00,
2013-11-14 17:55:00,52.3,33.7,30.26,South,180,8.5,12.0,49,0.00,,,0.00,VWS V13.00,2013-11-14 22:55:00,
2013-11-14 18:00:00,52.3,33.2,30.26,SW,225,7.6,12.0,48,0.00,,,0.00,VWS V13.00,2013-11-14 23:00:00,
2013-11-14 18:05:00,52.3,31.6,30.26,South,180,11.6,14.5,45,0.00,,,0.00,VWS V13.00,2013-11-14 23:05:00,
2013-11-14 18:10:00,52.3,31.0,30.25,SSE,158,17.2,17.2,44,0.00,,,0.00,VWS V13.00,2013-11-14 23:10:00,
2013-11-14 18:15:00,52.3,30.5,30.25,SSE,158,13.1,17.2,43,0.00,,,0.00,VWS V13.00,2013-11-14 23:15:00,
2013-11-14 18:20:00,52.1,30.3,30.26,South,180,4.9,17.2,43,0.00,,,0.00,VWS V13.00,2013-11-14 23:20:00,
2013-11-14 18:25:00,52.1,30.3,30.26,SSW,202,14.9,18.5,43,0.00,,,0.00,VWS V13.00,2013-11-14 23:25:00,
2013-11-14 18:30:00,51.9,30.7,30.26,South,180,8.5,18.5,44,0.00,,,0.00,VWS V13.00,2013-11-14 23:30:00,
2013-11-14 18:35:00,51.8,30.0,30.26,SE,135,8.0,18.5,43,0.00,,,0.00,VWS V13.00,2013-11-14 23:35:00,
2013-11-14 18:40:00,51.6,29.3,30.26,South,180,15.8,18.5,42,0.00,,,0.00,VWS V13.00,2013-11-14 23:40:00,
2013-11-14 18:45:00,51.6,29.3,30.26,ESE,112,9.6,15.8,42,0.00,,,0.00,VWS V13.00,2013-11-14 23:45:00,
2013-11-14 18:50:00,51.6,28.7,30.27,ESE,112,12.5,15.8,41,0.00,,,0.00,VWS V13.00,2013-11-14 23:50:00,
2013-11-14 18:55:00,51.4,27.9,30.26,South,180,8.7,15.8,40,0.00,,,0.00,VWS V13.00,2013-11-14 23:55:00,
2013-11-14 19:00:00,51.4,27.9,30.26,ESE,112,8.5,15.8,40,0.00,,,0.00,VWS V13.00,2013-11-15 00:00:00,
2013-11-14 19:05:00,51.0,28.1,30.27,SSW,202,13.6,13.6,41,0.00,,,0.00,VWS V13.00,2013-11-15 00:05:00,
2013-11-14 19:10:00,50.9,29.2,30.27,SE,135,15.8,15.8,43,0.00,,,0.00,VWS V13.00,2013-11-15 00:10:00,
2013-11-14 19:15:00,50.7,29.6,30.27,SSE,158,11.4,15.8,44,0.00,,,0.00,VWS V13.00,2013-11-15 00:15:00,
2013-11-14 19:20:00,50.5,29.4,30.27,SSE,158,7.3,15.8,44,0.00,,,0.00,VWS V13.00,2013-11-15 00:20:00,
2013-11-14 19:25:00,50.3,29.2,30.27,SSE,158,7.8,9.1,44,0.00,,,0.00,VWS V13.00,2013-11-15 00:25:00,
2013-11-14 19:30:00,50.1,29.0,30.27,SW,225,4.4,9.3,44,0.00,,,0.00,VWS V13.00,2013-11-15 00:30:00,
2013-11-14 19:35:00,50.0,29.5,30.27,South,180,4.9,9.3,45,0.00,,,0.00,VWS V13.00,2013-11-15 00:35:00,
2013-11-14 19:40:00,50.0,29.5,30.27,South,180,12.3,12.3,45,0.00,,,0.00,VWS V13.00,2013-11-15 00:40:00,
2013-11-14 19:45:00,49.8,29.3,30.27,SSE,158,9.1,14.5,45,0.00,,,0.00,VWS V13.00,2013-11-15 00:45:00,
2013-11-14 19:50:00,49.6,29.1,30.27,South,180,12.3,14.5,45,0.00,,,0.00,VWS V13.00,2013-11-15 00:50:00,
2013-11-14 19:55:00,49.6,29.7,30.27,SSE,158,2.4,14.5,46,0.00,,,0.00,VWS V13.00,2013-11-15 00:55:00,
2013-11-14 20:00:00,49.6,29.7,30.27,SSW,202,9.3,14.5,46,0.00,,,0.00,VWS V13.00,2013-11-15 01:00:00,
2013-11-14 20:05:00,49.2,29.3,30.27,ESE,112,9.6,13.1,46,0.00,,,0.00,VWS V13.00,2013-11-15 01:05:00,
2013-11-14 20:10:00,49.2,29.9,30.27,SSE,158,9.8,13.1,47,0.00,,,0.00,VWS V13.00,2013-11-15 01:10:00,
2013-11-14 20:15:00,49.1,29.2,30.27,South,180,10.5,13.1,46,0.00,,,0.00,VWS V13.00,2013-11-15 01:15:00,
2013-11-14 20:20:00,49.1,29.8,30.27,SSE,158,12.0,13.1,47,0.00,,,0.00,VWS V13.00,2013-11-15 01:20:00,
2013-11-14 20:25:00,48.9,30.6,30.27,SSE,158,12.7,12.7,49,0.00,,,0.00,VWS V13.00,2013-11-15 01:25:00,
2013-11-14 20:30:00,48.7,30.9,30.28,South,180,9.6,12.7,50,0.00,,,0.00,VWS V13.00,2013-11-15 01:30:00,
2013-11-14 20:35:00,48.7,31.4,30.27,South,180,12.9,17.4,51,0.00,,,0.00,VWS V13.00,2013-11-15 01:35:00,
2013-11-14 20:40:00,48.5,31.2,30.28,South,180,12.3,17.4,51,0.00,,,0.00,VWS V13.00,2013-11-15 01:40:00,
2013-11-14 20:45:00,48.5,31.2,30.28,SSE,158,9.3,14.5,51,0.00,,,0.00,VWS V13.00,2013-11-15 01:45:00,
2013-11-14 20:50:00,48.5,31.2,30.28,South,180,7.6,19.6,51,0.00,,,0.00,VWS V13.00,2013-11-15 01:50:00,
2013-11-14 20:55:00,48.5,30.7,30.28,South,180,9.8,19.6,50,0.00,,,0.00,VWS V13.00,2013-11-15 01:55:00,
2013-11-14 21:00:00,48.5,30.2,30.28,ESE,112,7.3,19.6,49,0.00,,,0.00,VWS V13.00,2013-11-15 02:00:00,
2013-11-14 21:05:00,48.7,30.4,30.28,SSE,158,11.1,14.5,49,0.00,,,0.00,VWS V13.00,2013-11-15 02:05:00,
2013-11-14 21:10:00,48.7,30.4,30.27,South,180,12.9,18.3,49,0.00,,,0.00,VWS V13.00,2013-11-15 02:10:00,
2013-11-14 21:15:00,48.7,30.4,30.27,SE,135,8.7,18.3,49,0.00,,,0.00,VWS V13.00,2013-11-15 02:15:00,
2013-11-14 21:20:00,48.5,30.7,30.27,South,180,10.7,18.3,50,0.00,,,0.00,VWS V13.00,2013-11-15 02:20:00,
2013-11-14 21:25:00,48.5,30.7,30.27,SSE,158,9.1,10.7,50,0.00,,,0.00,VWS V13.00,2013-11-15 02:25:00,
2013-11-14 21:30:00,48.5,30.2,30.27,SSE,158,16.7,16.7,49,0.00,,,0.00,VWS V13.00,2013-11-15 02:30:00,
2013-11-14 21:35:00,48.7,30.4,30.27,SSE,158,11.1,16.7,49,0.00,,,0.00,VWS V13.00,2013-11-15 02:35:00,
2013-11-14 21:40:00,48.7,30.9,30.27,SSE,158,9.1,16.7,50,0.00,,,0.00,VWS V13.00,2013-11-15 02:40:00,
2013-11-14 21:45:00,48.7,31.4,30.27,South,180,11.4,11.4,51,0.00,,,0.00,VWS V13.00,2013-11-15 02:45:00,
2013-11-14 21:50:00,48.7,31.4,30.27,ESE,112,8.7,11.4,51,0.00,,,0.00,VWS V13.00,2013-11-15 02:50:00,
2013-11-14 21:55:00,48.5,33.1,30.27,ESE,112,8.5,11.4,55,0.00,,,0.00,VWS V13.00,2013-11-15 02:55:00,
2013-11-14 22:00:00,48.3,33.8,30.27,ESE,112,8.7,11.4,57,0.00,,,0.00,VWS V13.00,2013-11-15 03:00:00,
2013-11-14 22:05:00,48.3,34.2,30.27,SSE,158,18.3,18.3,58,0.00,,,0.00,VWS V13.00,2013-11-15 03:05:00,
2013-11-14 22:10:00,48.5,34.4,30.27,South,180,15.8,18.3,58,0.00,,,0.00,VWS V13.00,2013-11-15 03:10:00,
2013-11-14 22:15:00,48.7,34.6,30.27,South,180,13.6,18.3,58,0.00,,,0.00,VWS V13.00,2013-11-15 03:15:00,
2013-11-14 22:20:00,48.9,34.8,30.27,SSE,158,16.5,18.3,58,0.00,,,0.00,VWS V13.00,2013-11-15 03:20:00,
2013-11-14 22:25:00,48.9,35.2,30.27,SSE,158,16.5,16.5,59,0.00,,,0.00,VWS V13.00,2013-11-15 03:25:00,
2013-11-14 22:30:00,48.9,35.2,30.27,SSE,158,9.6,16.5,59,0.00,,,0.00,VWS V13.00,2013-11-15 03:30:00,
2013-11-14 22:35:00,49.1,35.4,30.27,SE,135,10.5,19.2,59,0.00,,,0.00,VWS V13.00,2013-11-15 03:35:00,
2013-11-14 22:40:00,49.2,35.9,30.26,SE,135,10.0,19.2,60,0.00,,,0.00,VWS V13.00,2013-11-15 03:40:00,
2013-11-14 22:45:00,49.2,36.3,30.26,SSE,158,10.0,10.0,61,0.00,,,0.00,VWS V13.00,2013-11-15 03:45:00,
2013-11-14 22:50:00,49.2,36.8,30.27,SSE,158,10.7,10.7,62,0.00,,,0.00,VWS V13.00,2013-11-15 03:50:00,
2013-11-14 22:55:00,49.2,36.8,30.27,South,180,10.2,10.7,62,0.00,,,0.00,VWS V13.00,2013-11-15 03:55:00,
2013-11-14 23:00:00,49.2,35.9,30.26,SSE,158,13.1,13.1,60,0.00,,,0.00,VWS V13.00,2013-11-15 04:00:00,
2013-11-14 23:05:00,49.2,36.3,30.27,South,180,9.1,9.3,61,0.00,,,0.00,VWS V13.00,2013-11-15 04:05:00,
2013-11-14 23:10:00,49.4,36.5,30.27,SSE,158,10.9,10.9,61,0.00,,,0.00,VWS V13.00,2013-11-15 04:10:00,
2013-11-14 23:15:00,49.6,37.1,30.26,SSE,158,7.3,10.9,62,0.00,,,0.00,VWS V13.00,2013-11-15 04:15:00,
2013-11-14 23:20:00,49.6,36.7,30.26,SSE,158,11.4,12.0,61,0.00,,,0.00,VWS V13.00,2013-11-15 04:20:00,
2013-11-14 23:25:00,49.6,36.7,30.26,SSE,158,5.3,11.4,61,0.00,,,0.00,VWS V13.00,2013-11-15 04:25:00,
2013-11-14 23:30:00,49.6,36.7,30.27,SSE,158,9.6,13.6,61,0.00,,,0.00,VWS V13.00,2013-11-15 04:30:00,
2013-11-14 23:35:00,49.6,37.1,30.27,SSE,158,11.8,13.6,62,0.00,,,0.00,VWS V13.00,2013-11-15 04:35:00,
2013-11-14 23:40:00,49.8,37.7,30.26,ESE,112,10.2,13.6,63,0.00,,,0.00,VWS V13.00,2013-11-15 04:40:00,
2013-11-14 23:45:00,49.8,37.3,30.26,SSE,158,16.7,16.7,62,0.00,,,0.00,VWS V13.00,2013-11-15 04:45:00,
2013-11-14 23:50:00,49.8,36.9,30.26,SSE,158,11.4,16.7,61,0.00,,,0.00,VWS V13.00,2013-11-15 04:50:00,
2013-11-14 23:55:00,49.8,36.9,30.26,SSE,158,10.0,16.7,61,0.00,,,0.00,VWS V13.00,2013-11-15 04:55:00,